Vorticity
nan nan nan nan nan nan nan nan nan nan nan nan nan nan nan nan nan nan nan nan nan nan
nan 9 8 9 11 8 8 8 7 9 9 9 10 9 12 18 15 13 10 10 9 nan
nan 9 10 10 9 9 9 8 9 10 11 9 10 9 13 15 15 12 8 12 11 nan
nan 9 11 10 9 10 10 10 10 9 10 10 10 10 12 13 19 14 8 10 9 nan
nan 10 9 8 8 10 11 11 10 10 10 11 10 11 10 9 23 21 8 9 9 nan
nan 9 9 8 9 10 11 11 11 11 10 10 11 11 11 10 23 22 10 9 9 nan
nan 9 10 10 9 10 11 11 11 11 12 11 11 12 11 8 23 24 11 10 9 nan
nan 10 10 10 10 11 11 12 11 11 11 12 16 9 6 9 19 22 15 11 10 nan
nan 10 10 10 9 10 11 10 11 13 12 13 10 5 9 12 17 23 19 10 10 nan
nan 9 9 10 10 9 10 11 12 11 11 12 8 11 20 19 15 20 21 12 9 nan
nan 9 9 10 9 9 10 11 12 9 10 14 6 15 27 22 17 15 19 20 13 nan
nan 9 9 8 9 11 9 9 11 11 10 11 3 11 26 23 17 10 11 18 21 nan
nan 10 8 8 10 12 10 10 9 9 9 10 7 3 16 25 16 11 11 9 21 nan
nan nan nan nan nan nan nan nan nan nan nan nan nan nan nan nan nan nan nan nan nan nan
CAPE
1 5 9 10 16 13 11 13 6 4 6 6 5 5 5 8 4 1 0 0 0 0
1 3 9 5 12 20 12 15 6 5 5 6 9 4 4 3 8 0 0 0 0 0
0 0 2 5 9 9 14 10 8 8 6 6 6 5 5 3 14 0 0 0 0 0
0 0 0 2 4 7 13 11 8 8 5 8 5 6 6 6 12 0 0 0 0 0
0 0 1 1 1 2 10 8 7 6 9 7 7 7 8 8 8 0 0 0 0 0
0 0 0 1 0 1 8 6 6 6 7 6 5 6 6 5 3 0 0 0 0 0
0 0 0 1 2 4 7 10 7 4 4 6 7 8 6 6 3 1 0 0 0 0
0 0 0 0 1 2 5 9 6 3 2 4 10 10 4 1 4 3 0 0 0 0
0 0 0 0 0 1 2 4 5 1 2 3 7 15 25 12 4 2 0 0 0 0
0 0 0 0 0 0 3 5 3 2 3 2 4 22 29 16 7 1 0 0 0 0
0 0 0 0 0 0 6 6 4 1 1 3 4 27 16 9 1 0 1 0 0 0
0 0 0 0 0 1 5 5 3 5 5 3 4 26 28 4 0 0 0 0 0 0
0 0 0 0 0 3 5 8 7 6 4 11 4 16 48 7 0 0 0 0 0 2
0 0 0 0 0 0 4 4 4 5 3 2 3 6 31 40 0 1 0 0 0 0